Temperature
21 21 21 20 20 20 20 20 20 19 19 19 19 19 19 19 19 19 18 18 18 18 18 18 18 18 18 18 18 18 18 18 17 17 18 18 18 18 18 18 18 18 18
21 21 21 20 20 20 20 20 20 20 19 19 19 19 19 19 19 19 19 18 18 18 18 18 18 18 18 18 18 18 18 18 17 17 17 17 18 18 18 18 18 18 18
21 21 21 20 20 20 20 20 20 20 20 19 19 19 19 19 19 19 19 18 18 18 18 18 18 18 18 18 18 18 18 18 17 17 17 17 17 18 18 18 18 18 18
21 21 21 21 21 21 20 20 20 20 20 19 19 19 19 19 19 19 19 18 18 18 18 18 18 18 18 18 18 18 18 17 17 17 17 17 17 17 17 18 18 18 18
21 22 22 21 21 21 21 20 20 20 20 20 20 19 19 19 19 19 19 19 18 18 18 18 18 18 18 18 18 18 18 18 17 17 17 17 17 17 17 17 18 18 18
22 22 22 21 21 21 21 20 20 20 20 20 20 19 19 19 19 19 19 19 19 18 18 18 18 18 18 18 18 18 18 17 17 17 17 17 17 17 17 17 18 18 18
22 22 22 21 21 21 21 21 21 20 20 20 20 20 19 19 19 19 19 19 19 19 19 18 18 18 18 18 18 18 17 17 17 17 17 17 17 17 17 17 17 17 18
21 22 22 22 21 21 21 21 21 20 20 20 20 20 19 19 19 19 19 19 19 18 18 18 18 18 18 18 18 17 18 17 17 17 17 17 17 17 17 17 17 17 17
21 21 21 22 22 21 21 21 21 21 20 20 20 20 19 19 19 19 19 18 18 18 18 18 18 18 18 18 18 18 18 17 17 17 17 17 17 17 17 17 17 17 16
21 21 21 21 21 21 21 21 21 21 20 20 20 20 20 19 19 19 19 19 18 18 18 18 18 18 18 18 18 18 18 17 17 17 17 17 17 17 17 17 17 17 16
21 21 21 21 21 21 21 21 20 20 20 20 20 20 20 19 19 19 19 19 18 18 18 18 18 18 18 18 18 18 18 17 17 17 17 17 17 17 17 17 17 17 16
21 21 21 21 21 21 21 21 20 20 20 20 19 19 19 19 19 19 19 18 18 18 18 18 18 18 18 18 18 17 17 17 17 17 17 17 17 17 17 17 17 16 16
20 21 21 20 20 20 20 20 20 20 20 19 19 19 19 19 19 18 18 18 18 18 18 17 17 17 17 17 17 17 17 17 17 17 17 17 17 17 17 17 16 16 16
20 20 20 20 20 20 20 20 20 20 19 19 19 19 19 18 18 18 18 18 18 17 17 17 17 17 17 17 17 17 17 17 17 17 17 17 17 16 16 16 16 16 16
19 20 20 20 20 20 19 19 19 19 19 19 19 19 18 18 18 18 18 18 17 17 17 17 17 17 17 17 17 17 17 17 17 17 17 16 16 16 16 16 16 16 16
19 19 19 19 19 19 19 19 19 18 18 18 18 18 18 17 17 17 17 17 17 17 17 17 17 17 16 16 16 16 16 16 16 16 16 16 16 16 16 15 15 15 15
19 19 19 19 19 19 19 19 18 18 18 18 17 17 17 17 17 16 16 16 16 16 16 16 16 16 16 16 16 16 16 16 16 16 16 16 16 16 15 15 15 15 15
18 18 18 18 19 18 18 18 18 18 18 17 17 17 17 17 16 16 16 16 16 16 16 16 16 16 16 16 16 16 16 16 15 15 15 15 15 15 15 15 15 15 15
17 18 18 18 18 18 18 18 17 17 17 17 17 17 16 16 16 16 16 16 16 16 16 16 16 16 16 16 16 15 15 15 15 15 15 15 15 15 14 14 14 14 14
17 17 17 17 17 17 17 17 17 17 16 16 16 16 16 16 16 16 16 15 15 16 15 15 15 15 15 15 15 15 15 15 15 15 14 14 14 14 14 14 14 14 14
17 17 17 17 17 17 16 16 16 16 16 16 16 15 15 15 15 15 15 15 15 15 15 15 15 15 15 15 15 15 14 14 14 14 14 14 14 13 13 13 13 13 13
16 16 16 16 16 16 16 16 16 16 15 15 15 15 15 15 15 15 15 15 15 15 15 15 15 14 14 14 14 14 14 14 14 14 14 13 13 13 13 13 13 13 13
15 15 16 16 16 16 16 15 15 15 15 15 15 15 15 15 15 14 14 14 14 14 14 14 14 14 14 14 14 14 14 14 14 13 13 13 13 12 13 13 12 12 12
15 15 15 15 15 15 15 15 15 15 15 15 15 14 14 14 14 14 14 14 14 14 13 13 13 13 13 13 13 13 13 13 13 13 13 12 12 12 12 12 12 12 12
15 15 15 15 15 15 15 15 15 14 14 14 14 14 14 14 14 14 14 13 13 13 13 13 13 13 13 13 13 13 13 13 13 12 12 12 12 12 12 11 11 11 11
15 15 15 14 15 15 15 15 14 14 14 14 14 14 14 14 14 13 13 13 13 13 13 12 12 12 12 12 12 12 12 12 12 12 12 12 11 11 11 11 11 11 11
Wind_Speed
6 6 6 6 5 5 5 4 4 4 3 2 2 2 2 2 2 3 5 6 7 7 6 4 4 4 4 4 4 3 3 2 2 1 1 2 1 1 1 2 2 3 4
5 6 6 6 6 6 6 5 5 4 4 3 2 2 2 1 2 2 3 6 7 7 7 6 5 4 4 4 4 3 2 2 2 2 1 2 2 2 2 2 2 3 3
9 8 8 8 8 8 8 7 6 5 4 4 3 2 2 1 1 1 2 4 6 7 7 6 5 5 5 5 5 5 4 3 2 2 2 1 2 2 2 2 2 2 2
9 9 9 9 9 10 8 7 6 6 5 5 5 4 3 3 3 2 2 2 4 5 6 6 6 6 5 6 6 5 4 4 3 2 2 2 2 1 2 2 2 3 3
9 10 11 10 9 9 8 7 6 5 5 6 6 5 4 3 2 1 2 2 2 4 5 6 6 5 5 6 6 5 5 5 4 4 2 2 2 2 2 3 3 2 3
8 8 8 7 7 8 7 7 6 5 5 5 6 6 6 4 3 3 3 3 2 3 4 5 5 5 5 5 6 6 6 6 5 4 4 3 3 3 4 4 3 4 3
7 8 8 8 8 9 9 8 8 7 6 5 5 6 6 5 5 4 4 4 3 3 4 4 5 5 5 5 5 5 6 6 6 6 5 5 5 3 3 3 3 3 3
4 6 8 9 9 8 8 8 8 7 6 6 6 5 5 5 4 4 4 4 4 4 4 5 5 5 5 5 5 5 6 6 7 7 6 5 6 5 4 4 3 3 3
3 4 5 6 6 7 7 8 7 6 6 7 6 5 5 5 5 5 4 4 4 4 4 4 5 5 5 5 5 5 6 5 6 7 7 6 5 5 5 5 4 4 4
2 3 3 4 4 5 5 5 6 7 6 5 5 5 5 5 4 4 5 5 5 4 4 4 4 5 5 5 5 4 5 5 6 5 6 6 5 4 4 4 4 4 4
2 3 3 3 3 3 3 4 4 4 4 5 4 4 4 4 4 4 5 5 5 4 5 5 4 5 5 5 5 5 5 6 6 6 6 6 5 4 4 4 4 4 4
2 3 4 3 3 2 3 4 4 4 5 5 4 4 3 3 3 4 4 3 4 4 5 5 5 5 5 5 5 6 6 6 7 6 6 6 5 5 4 4 5 5 5
2 2 3 3 3 2 2 2 3 4 4 4 4 3 3 3 4 4 3 2 3 3 3 4 4 5 4 4 5 6 6 6 7 6 7 6 6 6 5 5 5 5 4
2 3 2 2 2 2 2 2 2 2 3 3 3 4 4 4 4 4 3 3 2 2 3 3 4 4 5 5 5 6 6 6 6 6 6 6 6 6 6 5 6 5 4
1 2 2 1 2 1 1 1 2 2 2 3 4 5 4 3 2 3 3 2 3 3 3 3 3 4 4 5 5 5 5 4 5 5 5 5 6 6 6 5 5 4 4
1 1 1 1 2 2 2 1 1 2 2 3 4 3 2 2 2 3 3 3 3 3 3 3 3 3 4 4 6 5 4 4 4 4 3 3 3 4 4 5 5 5 5
2 2 3 3 2 2 2 2 1 1 2 2 2 2 2 3 3 3 3 3 4 3 3 3 3 4 4 4 5 5 4 4 3 3 2 2 1 2 2 2 3 3 4
2 3 2 2 1 1 1 2 2 1 1 1 1 2 2 2 2 2 3 3 3 4 4 4 4 4 4 4 5 5 4 4 4 3 3 3 2 1 2 1 2 2 3
2 3 2 2 1 1 2 2 2 2 1 1 2 2 2 2 2 2 3 3 3 3 3 3 3 3 3 3 4 5 3 3 3 3 3 3 3 2 2 2 2 3 3
1 1 1 0 0 1 1 2 1 1 2 3 3 2 2 2 2 3 3 2 2 3 3 3 3 4 4 4 4 4 3 3 2 2 2 3 3 3 2 3 3 4 4
2 1 0 0 1 0 1 1 1 3 4 3 2 1 1 2 2 2 2 2 2 2 2 3 3 3 4 4 4 5 4 4 4 3 3 2 4 4 4 4 5 5 4
2 1 0 1 2 0 1 1 2 3 2 1 1 2 2 2 1 1 2 2 2 2 2 2 3 3 2 2 3 4 5 5 4 4 3 3 3 4 3 3 4 4 2
2 2 1 1 2 1 2 2 4 3 1 1 2 2 2 2 1 2 2 2 2 2 2 2 3 3 2 2 3 3 4 5 4 3 3 3 3 2 2 2 2 2 2
2 2 1 1 3 2 1 2 3 2 1 2 2 2 2 2 2 2 2 2 3 2 2 3 3 3 3 2 2 2 2 3 3 2 2 2 1 1 1 0 1 1 1
2 2 2 2 3 3 2 2 2 1 1 2 2 2 2 2 2 2 2 3 3 4 3 3 3 4 4 4 4 3 3 3 3 3 1 1 1 1 1 1 0 1 1
2 2 1 2 3 2 3 3 2 1 1 2 2 2 2 2 2 2 2 2 3 3 3 3 3 4 4 4 3 3 4 4 5 4 2 2 2 2 2 2 1 1 1
Wind_Direction
194 176 177 174 172 180 181 181 172 167 149 148 159 165 186 185 193 205 204 195 193 188 188 192 184 178 183 189 178 160 164 169 148 112 342 333 311 283 261 245 244 249 248
184 182 177 175 180 192 196 187 184 176 172 176 172 168 159 177 195 206 204 199 195 192 194 187 191 184 180 179 178 166 167 183 162 148 100 343 329 309 279 261 246 256 250
197 193 190 190 191 197 200 198 191 184 180 170 143 124 91 66 109 183 204 201 198 199 201 198 193 186 184 193 195 186 182 191 190 177 161 171 245 296 296 274 258 264 257
196 193 195 195 201 204 199 190 186 183 178 168 166 169 180 198 215 201 200 198 197 200 202 203 199 193 192 197 203 196 188 181 199 199 199 202 188 215 291 289 267 268 266
194 194 196 196 197 195 191 186 180 183 179 175 180 181 193 203 200 185 188 201 204 206 204 202 200 199 200 201 203 198 195 196 200 198 193 205 214 215 226 274 289 289 267
195 194 188 180 184 186 185 180 176 189 183 181 184 189 194 195 193 207 208 213 216 215 213 207 201 202 203 204 207 206 204 206 208 208 202 198 205 211 213 243 269 283 282
192 188 177 176 183 188 187 183 182 190 186 183 193 199 201 198 201 211 213 214 218 222 219 212 204 205 210 208 204 206 211 209 210 214 219 218 222 210 203 222 256 272 286
190 191 186 182 185 186 185 185 188 193 187 192 203 203 201 203 212 212 211 215 220 225 218 207 209 211 211 214 207 214 219 216 219 225 222 225 227 216 208 203 216 275 286
179 176 171 171 175 183 193 188 186 192 194 200 200 202 204 207 215 216 216 221 226 228 215 208 211 214 213 213 210 221 225 218 223 229 228 229 230 220 217 209 204 217 265
142 139 148 160 170 182 189 188 192 196 194 194 203 211 211 216 219 217 225 228 230 226 214 213 212 214 213 211 213 226 229 223 230 227 226 230 230 221 215 211 210 212 227
152 141 142 144 155 163 172 193 200 192 189 194 202 211 214 216 217 224 231 230 232 223 219 215 210 213 214 210 211 225 226 225 233 233 227 231 221 217 220 212 211 217 217
131 138 145 142 141 158 174 191 194 196 198 194 194 207 205 200 216 231 239 234 233 230 224 215 215 223 225 217 217 230 230 228 235 235 228 231 225 219 219 215 221 224 219
118 116 132 146 163 179 186 187 193 203 198 182 183 195 202 204 220 230 229 235 239 245 238 219 219 225 227 228 229 230 233 237 238 233 227 230 220 222 220 217 225 230 227
143 135 148 161 168 183 192 191 205 201 192 185 189 207 218 217 219 216 208 209 218 237 243 233 225 224 224 227 230 228 226 235 238 234 231 231 224 224 222 219 220 220 221
136 155 170 189 175 167 191 200 203 198 190 187 203 220 225 220 215 212 211 206 215 231 227 232 236 234 227 228 230 232 230 229 239 243 240 238 229 223 221 223 215 208 215
210 206 187 209 213 198 203 206 206 197 181 192 216 225 211 203 214 223 214 211 221 228 219 224 234 239 241 234 222 217 222 225 227 236 244 246 234 224 218 218 211 202 211
229 229 224 221 226 224 196 198 205 182 171 186 210 217 209 211 219 231 230 227 229 228 232 234 230 237 238 228 218 201 193 203 213 215 214 231 225 203 224 230 227 228 225
281 269 259 250 242 234 217 169 145 147 188 210 214 220 217 224 228 219 230 240 235 228 227 229 226 237 243 227 215 196 191 197 208 208 200 202 222 211 198 218 246 256 249
289 278 254 239 227 214 194 149 140 142 174 232 230 230 218 221 226 226 235 235 231 234 229 225 226 235 250 232 213 198 198 203 216 218 208 204 218 227 181 189 239 272 280
346 326 293 95 184 243 152 137 163 181 228 236 239 240 225 222 231 237 241 243 236 239 235 241 242 236 247 240 214 189 188 201 217 226 224 214 218 227 197 208 224 249 266
347 349 29 323 270 292 116 149 233 251 255 248 235 231 235 229 234 245 244 239 234 234 241 250 259 252 251 250 223 194 193 202 207 216 232 240 236 235 224 218 224 233 242
344 340 153 306 309 286 149 210 270 270 273 255 252 255 259 262 272 251 259 246 225 223 242 256 277 277 265 249 234 209 205 200 205 215 222 228 236 238 233 227 232 229 215
317 304 240 291 301 272 200 229 268 279 276 253 263 273 275 271 263 240 250 263 242 234 248 247 259 276 275 256 228 215 210 203 204 213 210 217 223 234 222 201 215 198 186
295 295 279 284 288 284 276 258 273 272 263 266 268 264 259 269 272 260 244 239 237 230 236 249 256 260 258 257 250 228 214 204 199 206 194 188 179 171 181 151 184 186 192
273 272 261 274 285 297 294 287 281 265 262 271 276 281 271 252 246 249 245 243 249 239 224 236 236 242 255 261 242 215 213 208 197 164 149 142 146 156 149 166 207 201 202
267 264 259 273 283 292 296 301 311 279 255 273 268 264 264 258 246 243 287 285 253 264 239 225 221 241 243 257 252 228 206 190 168 154 174 195 203 206 210 219 232 225 219
Height
1502 1504 1507 1509 1511 1513 1514 1516 1517 1518 1520 1521 1523 1524 1525 1527 1528 1530 1531 1533 1536 1538 1540 1542 1544 1545 1547 1549 1550 1551 1553 1554 1555 1555 1556 1556 1557 1558 1559 1559 1560 1560 1560
1501 1503 1505 1507 1509 1511 1513 1514 1516 1518 1520 1521 1523 1524 1525 1526 1528 1529 1530 1532 1535 1537 1539 1541 1542 1544 1546 1548 1549 1550 1551 1552 1554 1554 1555 1555 1557 1556 1557 1557 1557 1558 1558
1498 1500 1502 1504 1507 1509 1511 1513 1515 1517 1519 1521 1523 1524 1525 1526 1527 1528 1529 1531 1534 1536 1538 1540 1541 1543 1544 1546 1547 1548 1549 1550 1552 1553 1554 1554 1554 1554 1555 1555 1555 1556 1556
1494 1497 1499 1501 1503 1506 1509 1511 1514 1516 1518 1520 1521 1523 1524 1524 1526 1527 1528 1530 1532 1535 1536 1538 1540 1541 1543 1544 1546 1547 1548 1549 1549 1551 1552 1554 1553 1554 1552 1552 1553 1553 1553
1491 1493 1495 1498 1501 1503 1506 1509 1512 1514 1516 1518 1520 1521 1522 1524 1525 1526 1528 1529 1532 1533 1535 1536 1538 1539 1541 1542 1543 1545 1546 1547 1548 1549 1550 1551 1551 1552 1551 1550 1550 1550 1550
1488 1490 1493 1497 1499 1502 1504 1506 1510 1512 1515 1516 1518 1519 1520 1522 1523 1524 1526 1528 1530 1531 1533 1535 1536 1537 1538 1540 1541 1542 1544 1545 1545 1546 1547 1548 1549 1549 1549 1548 1547 1547 1547
1486 1488 1490 1493 1496 1500 1502 1505 1508 1510 1512 1514 1516 1518 1519 1520 1521 1523 1524 1526 1527 1529 1530 1532 1533 1535 1536 1537 1539 1540 1541 1542 1542 1543 1544 1545 1546 1546 1547 1546 1545 1544 1544
1484 1486 1488 1491 1494 1497 1500 1503 1505 1507 1509 1512 1514 1516 1517 1519 1520 1521 1522 1524 1524 1526 1528 1529 1531 1532 1534 1535 1536 1537 1537 1538 1539 1540 1541 1541 1542 1543 1543 1543 1543 1542 1541
1483 1485 1487 1490 1493 1495 1497 1500 1502 1504 1507 1509 1511 1513 1515 1516 1517 1519 1521 1522 1523 1524 1525 1526 1528 1529 1530 1531 1532 1533 1534 1535 1536 1536 1537 1537 1538 1539 1539 1539 1540 1540 1538
1483 1484 1486 1489 1491 1493 1496 1499 1500 1502 1504 1507 1509 1510 1512 1514 1515 1516 1518 1519 1520 1521 1522 1524 1525 1526 1527 1528 1528 1529 1530 1531 1531 1532 1533 1533 1534 1534 1535 1535 1536 1536 1536
1482 1483 1485 1488 1490 1492 1494 1496 1498 1500 1502 1504 1506 1507 1509 1511 1512 1513 1514 1515 1517 1518 1519 1520 1521 1522 1523 1524 1524 1525 1526 1527 1527 1528 1528 1528 1529 1530 1530 1531 1531 1531 1531
1482 1483 1485 1487 1489 1490 1492 1494 1496 1498 1499 1501 1503 1504 1506 1507 1508 1509 1511 1512 1513 1514 1515 1516 1516 1517 1518 1519 1520 1521 1522 1522 1523 1523 1524 1524 1525 1525 1525 1526 1526 1527 1527
1482 1483 1484 1485 1487 1489 1490 1492 1493 1495 1497 1499 1500 1502 1503 1504 1505 1506 1507 1508 1509 1510 1511 1512 1512 1513 1514 1515 1515 1517 1517 1518 1518 1519 1519 1519 1520 1520 1520 1521 1522 1522 1522
1481 1482 1483 1484 1486 1487 1488 1490 1491 1493 1494 1496 1497 1498 1499 1500 1501 1502 1503 1504 1505 1506 1506 1507 1507 1509 1510 1511 1511 1512 1512 1512 1513 1514 1515 1515 1516 1516 1516 1516 1517 1517 1518
1480 1481 1482 1483 1484 1486 1487 1489 1490 1491 1492 1493 1494 1495 1496 1497 1498 1498 1499 1499 1501 1501 1502 1503 1503 1505 1505 1506 1507 1507 1508 1508 1509 1509 1510 1510 1511 1511 1512 1512 1512 1512 1513
1480 1480 1481 1482 1483 1484 1486 1487 1488 1489 1490 1491 1492 1493 1493 1494 1494 1494 1495 1496 1496 1497 1498 1499 1500 1500 1501 1501 1502 1503 1503 1504 1504 1504 1505 1505 1506 1506 1507 1508 1508 1508 1508
1479 1480 1480 1481 1482 1483 1484 1485 1486 1487 1488 1488 1489 1490 1490 1490 1491 1491 1492 1492 1493 1493 1494 1495 1495 1496 1496 1497 1498 1498 1499 1500 1500 1500 1501 1501 1501 1502 1503 1503 1504 1504 1504
1480 1480 1480 1480 1481 1482 1483 1484 1484 1485 1485 1486 1486 1487 1487 1487 1487 1488 1488 1489 1489 1490 1490 1491 1491 1491 1492 1493 1493 1494 1494 1495 1496 1496 1496 1497 1497 1498 1499 1499 1499 1500 1500
1479 1480 1479 1479 1480 1480 1481 1481 1481 1482 1482 1482 1483 1483 1484 1484 1484 1484 1485 1486 1486 1486 1487 1487 1487 1488 1488 1489 1489 1490 1490 1491 1491 1492 1493 1493 1494 1494 1494 1495 1495 1495 1495
1478 1478 1478 1478 1478 1478 1479 1479 1479 1479 1479 1479 1480 1480 1481 1481 1481 1481 1482 1482 1483 1483 1483 1483 1483 1484 1484 1485 1485 1486 1486 1486 1487 1488 1489 1489 1490 1490 1490 1491 1491 1491 1491
1476 1476 1476 1476 1476 1476 1477 1477 1477 1477 1477 1477 1477 1478 1478 1478 1478 1478 1478 1478 1479 1479 1478 1479 1479 1480 1480 1481 1481 1482 1482 1482 1482 1483 1484 1485 1486 1487 1487 1487 1487 1487 1487
1474 1475 1475 1474 1474 1475 1475 1474 1474 1475 1475 1475 1475 1475 1475 1475 1475 1475 1475 1475 1475 1474 1474 1475 1475 1476 1476 1476 1477 1478 1478 1479 1479 1479 1480 1481 1482 1482 1482 1483 1483 1482 1483
1473 1473 1473 1473 1473 1473 1473 1472 1472 1473 1473 1472 1472 1472 1472 1472 1472 1472 1471 1471 1471 1471 1471 1470 1470 1471 1471 1472 1472 1473 1473 1474 1475 1476 1477 1477 1478 1478 1478 1478 1479 1479 1479
1472 1472 1471 1471 1471 1470 1470 1470 1471 1470 1470 1469 1469 1469 1468 1468 1468 1468 1468 1468 1467 1467 1466 1467 1466 1466 1467 1467 1468 1469 1470 1470 1471 1472 1472 1473 1474 1474 1474 1474 1475 1475 1475
1470 1470 1469 1468 1468 1468 1468 1468 1468 1468 1467 1466 1466 1466 1466 1465 1465 1465 1465 1464 1464 1464 1463 1462 1462 1463 1463 1463 1464 1465 1465 1466 1467 1467 1468 1468 1469 1469 1470 1470 1471 1471 1471
1468 1467 1467 1467 1467 1466 1466 1465 1465 1465 1464 1464 1464 1463 1463 1462 1462 1461 1461 1461 1462 1462 1461 1460 1460 1460 1460 1461 1461 1462 1462 1462 1463 1463 1463 1464 1464 1465 1465 1466 1467 1467 1467